Data supplied by UK-AIR on 30/3/2019
All Data GMT hour ending 
Status: R =Ratified P=Provisional,P*=As supplied
,,Northampton Spring Park,,,,,,,,,,,,,,,,,,,,,,,
Date,time,"Nitric oxide",status,unit,"Nitrogen dioxide",status,unit,"Nitrogen oxides as nitrogen dioxide",status,unit,"Ozone",status,unit,"PM<sub>2.5</sub> particulate matter (Hourly measured)",status,unit
 
01-01-2018,01:00,0.39372,R,ugm-3,0.34805,R,ugm-3,0.95175,R,ugm-3,82.78296,R,ugm-3,6.000,R,ugm-3 (BAM)
01-01-2018,02:00,1.04993,R,ugm-3,1.62608,R,ugm-3,3.23595,R,ugm-3,76.69740,R,ugm-3,5.000,R,ugm-3 (BAM)
01-01-2018,03:00,0.45934,R,ugm-3,1.05642,R,ugm-3,1.76074,R,ugm-3,74.86207,R,ugm-3,5.000,R,ugm-3 (BAM)
01-01-2018,04:00,0.49216,R,ugm-3,1.29163,R,ugm-3,2.04626,R,ugm-3,76.02122,R,ugm-3,9.000,R,ugm-3 (BAM)
01-01-2018,05:00,0.39372,R,ugm-3,0.91910,R,ugm-3,1.52280,R,ugm-3,81.18912,R,ugm-3,6.000,R,ugm-3 (BAM)
01-01-2018,06:00,0.42653,R,ugm-3,0.96396,R,ugm-3,1.61797,R,ugm-3,80.89933,R,ugm-3,6.000,R,ugm-3 (BAM)
01-01-2018,07:00,0.62340,R,ugm-3,1.23316,R,ugm-3,2.18902,R,ugm-3,80.46465,R,ugm-3,4.000,R,ugm-3 (BAM)
01-01-2018,08:00,0.98431,R,ugm-3,3.24949,R,ugm-3,4.75875,R,ugm-3,75.00696,R,ugm-3,6.000,R,ugm-3 (BAM)
01-01-2018,09:00,0.88588,R,ugm-3,3.49559,R,ugm-3,4.85392,R,ugm-3,72.01248,R,ugm-3,8.000,R,ugm-3 (BAM)
01-01-2018,10:00,0.95150,R,ugm-3,4.77501,R,ugm-3,6.23396,R,ugm-3,69.59758,R,ugm-3,5.000,R,ugm-3 (BAM)
01-01-2018,11:00,1.67333,R,ugm-3,7.85592,R,ugm-3,10.42166,R,ugm-3,65.39564,R,ugm-3,5.000,R,ugm-3 (BAM)
01-01-2018,12:00,2.13267,R,ugm-3,11.05378,R,ugm-3,14.32383,R,ugm-3,62.01477,R,ugm-3,8.000,R,ugm-3 (BAM)
01-01-2018,13:00,2.46078,R,ugm-3,9.40859,R,ugm-3,13.18173,R,ugm-3,69.59758,R,ugm-3,8.000,R,ugm-3 (BAM)
01-01-2018,14:00,2.00143,R,ugm-3,8.35217,R,ugm-3,11.42099,R,ugm-3,68.43842,R,ugm-3,5.000,R,ugm-3 (BAM)
01-01-2018,15:00,2.13267,R,ugm-3,6.58056,R,ugm-3,9.85061,R,ugm-3,74.18590,R,ugm-3,4.000,R,ugm-3 (BAM)
01-01-2018,16:00,1.64052,R,ugm-3,6.05032,R,ugm-3,8.56574,R,ugm-3,71.54560,R,ugm-3,4.000,R,ugm-3 (BAM)
01-01-2018,17:00,2.13267,R,ugm-3,10.38755,R,ugm-3,13.65760,R,ugm-3,65.10585,R,ugm-3,6.000,R,ugm-3 (BAM)
01-01-2018,18:00,1.24679,R,ugm-3,4.08430,R,ugm-3,5.99602,R,ugm-3,76.21442,R,ugm-3,8.000,R,ugm-3 (BAM)
01-01-2018,19:00,1.04993,R,ugm-3,3.14888,R,ugm-3,4.75875,R,ugm-3,79.30550,R,ugm-3,6.000,R,ugm-3 (BAM)
01-01-2018,20:00,1.08274,R,ugm-3,3.85997,R,ugm-3,5.52015,R,ugm-3,81.57551,R,ugm-3,5.000,R,ugm-3 (BAM)
01-01-2018,21:00,0.55778,R,ugm-3,3.14210,R,ugm-3,3.99735,R,ugm-3,84.47339,R,ugm-3,5.000,R,ugm-3 (BAM)
01-01-2018,22:00,0.65621,R,ugm-3,3.22912,R,ugm-3,4.23529,R,ugm-3,83.07275,R,ugm-3,9.000,R,ugm-3 (BAM)
01-01-2018,23:00,0.32810,R,ugm-3,3.20874,R,ugm-3,3.71182,R,ugm-3,80.70614,R,ugm-3,6.000,R,ugm-3 (BAM)
01-01-2018,24:00,0.52497,R,ugm-3,1.47926,R,ugm-3,2.28420,R,ugm-3,78.48443,R,ugm-3,5.000,R,ugm-3 (BAM)
02-01-2018,01:00,0.36074,R,ugm-3,0.35078,R,ugm-3,0.90390,R,ugm-3,80.34717,R,ugm-3,5.000,R,ugm-3 (BAM)
02-01-2018,02:00,0.42633,R,ugm-3,0.34536,R,ugm-3,0.99905,R,ugm-3,77.49489,R,ugm-3,3.000,R,ugm-3 (BAM)
02-01-2018,03:00,0.36074,R,ugm-3,0.58865,R,ugm-3,1.14177,R,ugm-3,74.40090,R,ugm-3,7.000,R,ugm-3 (BAM)
02-01-2018,04:00,0.26236,R,ugm-3,0.35891,R,ugm-3,0.76118,R,ugm-3,74.06249,R,ugm-3,9.000,R,ugm-3 (BAM)
02-01-2018,05:00,0.52471,R,ugm-3,0.19450,R,ugm-3,0.99905,R,ugm-3,75.22274,R,ugm-3,9.000,R,ugm-3 (BAM)
02-01-2018,06:00,0.59030,R,ugm-3,2.66292,R,ugm-3,3.56804,R,ugm-3,71.88703,R,ugm-3,10.000,R,ugm-3 (BAM)
02-01-2018,07:00,1.96767,R,ugm-3,10.11332,R,ugm-3,13.13037,R,ugm-3,65.21560,R,ugm-3,9.000,R,ugm-3 (BAM)
02-01-2018,08:00,2.55797,R,ugm-3,20.62592,R,ugm-3,24.54809,R,ugm-3,50.42244,R,ugm-3,7.000,R,ugm-3 (BAM)
02-01-2018,09:00,3.31225,R,ugm-3,21.46748,R,ugm-3,26.54619,R,ugm-3,46.36157,R,ugm-3,9.000,R,ugm-3 (BAM)
02-01-2018,10:00,6.75567,R,ugm-3,40.21242,R,ugm-3,50.57096,R,ugm-3,29.53798,R,ugm-3,9.000,R,ugm-3 (BAM)
02-01-2018,11:00,3.54181,R,ugm-3,27.63311,R,ugm-3,33.06380,R,ugm-3,42.68745,R,ugm-3,10.000,R,ugm-3 (BAM)
02-01-2018,12:00,3.01710,R,ugm-3,25.48808,R,ugm-3,30.11423,R,ugm-3,49.11716,R,ugm-3,7.000,R,ugm-3 (BAM)
02-01-2018,13:00,2.95151,R,ugm-3,27.53917,R,ugm-3,32.06475,R,ugm-3,49.89066,R,ugm-3,6.000,R,ugm-3 (BAM)
02-01-2018,14:00,2.32841,R,ugm-3,22.64299,R,ugm-3,26.21317,R,ugm-3,54.62834,R,ugm-3,6.000,R,ugm-3 (BAM)
02-01-2018,15:00,2.75474,R,ugm-3,15.04352,R,ugm-3,19.26740,R,ugm-3,62.55670,R,ugm-3,5.000,R,ugm-3 (BAM)
02-01-2018,16:00,3.14827,R,ugm-3,13.72650,R,ugm-3,18.55379,R,ugm-3,64.10370,R,ugm-3,5.000,R,ugm-3 (BAM)
02-01-2018,17:00,3.57460,R,ugm-3,25.82259,R,ugm-3,31.30357,R,ugm-3,50.22907,R,ugm-3,8.000,R,ugm-3 (BAM)
02-01-2018,18:00,2.36121,R,ugm-3,19.50041,R,ugm-3,23.12087,R,ugm-3,54.09656,R,ugm-3,9.000,R,ugm-3 (BAM)
02-01-2018,19:00,1.86929,R,ugm-3,18.87503,R,ugm-3,21.74123,R,ugm-3,58.97927,R,ugm-3,14.000,R,ugm-3 (BAM)
02-01-2018,20:00,0.81986,R,ugm-3,10.73150,R,ugm-3,11.98860,R,ugm-3,70.53340,R,ugm-3,20.000,R,ugm-3 (BAM)
02-01-2018,21:00,0.68868,R,ugm-3,6.41312,R,ugm-3,7.46909,R,ugm-3,73.04728,R,ugm-3,14.000,R,ugm-3 (BAM)
02-01-2018,22:00,0.65589,R,ugm-3,4.17986,R,ugm-3,5.18555,R,ugm-3,74.78765,R,ugm-3,8.000,R,ugm-3 (BAM)
02-01-2018,23:00,0.59030,R,ugm-3,1.66387,R,ugm-3,2.56899,R,ugm-3,75.80287,R,ugm-3,4.000,R,ugm-3 (BAM)
02-01-2018,24:00,0.39353,R,ugm-3,0.30049,R,ugm-3,0.90390,R,ugm-3,85.61663,R,ugm-3,5.000,R,ugm-3 (BAM)
03-01-2018,01:00,0.21852,R,ugm-3,0.10883,R,ugm-3,0.44390,R,ugm-3,88.06838,R,ugm-3,4.000,R,ugm-3 (BAM)
03-01-2018,02:00,0.30593,R,ugm-3,0.35528,R,ugm-3,0.82438,R,ugm-3,86.66509,R,ugm-3,6.000,R,ugm-3 (BAM)
03-01-2018,03:00,0.39335,R,ugm-3,-0.22264,R,ugm-3,0.38048,R,ugm-3,94.35897,R,ugm-3,5.000,R,ugm-3 (BAM)
03-01-2018,04:00,0.29501,R,ugm-3,0.11838,R,ugm-3,0.57072,R,ugm-3,95.18159,R,ugm-3,8.000,R,ugm-3 (BAM)
03-01-2018,05:00,0.39335,R,ugm-3,-0.17508,R,ugm-3,0.42804,R,ugm-3,91.93951,R,ugm-3,11.000,R,ugm-3 (BAM)
03-01-2018,06:00,0.55724,R,ugm-3,0.33458,R,ugm-3,1.18900,R,ugm-3,89.95556,R,ugm-3,6.000,R,ugm-3 (BAM)
03-01-2018,07:00,1.04892,R,ugm-3,1.43553,R,ugm-3,3.04385,R,ugm-3,88.45549,R,ugm-3,6.000,R,ugm-3 (BAM)
03-01-2018,08:00,2.06506,R,ugm-3,3.49205,R,ugm-3,6.65842,R,ugm-3,85.79408,R,ugm-3,7.000,R,ugm-3 (BAM)
03-01-2018,09:00,2.09784,R,ugm-3,5.62955,R,ugm-3,8.84619,R,ugm-3,82.31006,R,ugm-3,7.000,R,ugm-3 (BAM)
03-01-2018,10:00,1.63894,R,ugm-3,4.19299,R,ugm-3,6.70598,R,ugm-3,83.18107,R,ugm-3,6.000,R,ugm-3 (BAM)
03-01-2018,11:00,1.96672,R,ugm-3,3.69039,R,ugm-3,6.70598,R,ugm-3,84.05207,R,ugm-3,6.000,R,ugm-3 (BAM)
03-01-2018,12:00,1.83561,R,ugm-3,3.65363,R,ugm-3,6.46818,R,ugm-3,82.06811,R,ugm-3,11.000,R,ugm-3 (BAM)
03-01-2018,13:00,2.55674,R,ugm-3,4.30763,R,ugm-3,8.22791,R,ugm-3,82.35845,R,ugm-3,9.000,R,ugm-3 (BAM)
03-01-2018,14:00,1.86839,R,ugm-3,3.98385,R,ugm-3,6.84866,R,ugm-3,84.24563,R,ugm-3,6.000,R,ugm-3 (BAM)
03-01-2018,15:00,5.53960,R,ugm-3,7.01068,R,ugm-3,15.50461,R,ugm-3,80.56805,R,ugm-3,7.000,R,ugm-3 (BAM)
03-01-2018,16:00,2.72063,R,ugm-3,5.62582,R,ugm-3,9.79739,R,ugm-3,80.08415,R,ugm-3,15.000,R,ugm-3 (BAM)
03-01-2018,17:00,2.75341,R,ugm-3,5.52800,R,ugm-3,9.74983,R,ugm-3,80.37449,R,ugm-3,14.000,R,ugm-3 (BAM)
03-01-2018,18:00,4.03178,R,ugm-3,7.13487,R,ugm-3,13.31685,R,ugm-3,79.16476,R,ugm-3,13.000,R,ugm-3 (BAM)
03-01-2018,19:00,2.72063,R,ugm-3,4.81730,R,ugm-3,8.98887,R,ugm-3,81.24550,R,ugm-3,9.000,R,ugm-3 (BAM)
03-01-2018,20:00,2.26173,R,ugm-3,4.14169,R,ugm-3,7.60963,R,ugm-3,81.05194,R,ugm-3,13.000,R,ugm-3 (BAM)
03-01-2018,21:00,1.50782,R,ugm-3,2.25382,R,ugm-3,4.56578,R,ugm-3,82.11650,R,ugm-3,11.000,R,ugm-3 (BAM)
03-01-2018,22:00,1.21281,R,ugm-3,2.46836,R,ugm-3,4.32797,R,ugm-3,81.68100,R,ugm-3,11.000,R,ugm-3 (BAM)
03-01-2018,23:00,0.52446,R,ugm-3,3.00065,R,ugm-3,3.80481,R,ugm-3,79.50348,R,ugm-3,12.000,R,ugm-3 (BAM)
03-01-2018,24:00,0.68835,R,ugm-3,2.36887,R,ugm-3,3.42433,R,ugm-3,79.74543,R,ugm-3,12.000,R,ugm-3 (BAM)
04-01-2018,01:00,0.42592,R,ugm-3,2.91293,R,ugm-3,3.56599,R,ugm-3,76.57537,R,ugm-3,12.000,R,ugm-3 (BAM)
04-01-2018,02:00,0.36039,R,ugm-3,2.87076,R,ugm-3,3.42335,R,ugm-3,72.11938,R,ugm-3,15.000,R,ugm-3 (BAM)
04-01-2018,03:00,0.32763,R,ugm-3,3.91947,R,ugm-3,4.42183,R,ugm-3,74.34738,R,ugm-3,14.000,R,ugm-3 (BAM)
04-01-2018,04:00,0.52421,R,ugm-3,3.28523,R,ugm-3,4.08900,R,ugm-3,77.25346,R,ugm-3,10.000,R,ugm-3 (BAM)
04-01-2018,05:00,0.42592,R,ugm-3,3.72121,R,ugm-3,4.37428,R,ugm-3,74.58955,R,ugm-3,10.000,R,ugm-3 (BAM)
04-01-2018,06:00,0.65526,R,ugm-3,6.46009,R,ugm-3,7.46480,R,ugm-3,70.76320,R,ugm-3,7.000,R,ugm-3 (BAM)
04-01-2018,07:00,1.96577,R,ugm-3,26.51224,R,ugm-3,29.52638,R,ugm-3,49.16129,R,ugm-3,4.000,R,ugm-3 (BAM)
04-01-2018,08:00,3.63668,R,ugm-3,40.92432,R,ugm-3,46.50049,R,ugm-3,34.58243,R,ugm-3,4.000,R,ugm-3 (BAM)
04-01-2018,09:00,5.34035,R,ugm-3,39.16790,R,ugm-3,47.35632,R,ugm-3,37.44008,R,ugm-3,4.000,R,ugm-3 (BAM)
04-01-2018,10:00,8.78045,R,ugm-3,39.88402,R,ugm-3,53.34718,R,ugm-3,33.75904,R,ugm-3,7.000,R,ugm-3 (BAM)
04-01-2018,11:00,3.76773,R,ugm-3,17.47314,R,ugm-3,23.25024,R,ugm-3,50.42060,R,ugm-3,7.000,R,ugm-3 (BAM)
04-01-2018,12:00,2.98142,R,ugm-3,12.73548,R,ugm-3,17.30693,R,ugm-3,61.60903,R,ugm-3,11.000,R,ugm-3 (BAM)
04-01-2018,13:00,3.14524,R,ugm-3,9.44133,R,ugm-3,14.26395,R,ugm-3,76.38163,R,ugm-3,18.000,R,ugm-3 (BAM)
04-01-2018,14:00,1.96577,R,ugm-3,5.63932,R,ugm-3,8.65346,R,ugm-3,81.80633,R,ugm-3,8.000,R,ugm-3 (BAM)
04-01-2018,15:00,2.52274,R,ugm-3,5.59361,R,ugm-3,9.46176,R,ugm-3,78.31903,R,ugm-3,6.000,R,ugm-3 (BAM)
04-01-2018,16:00,2.22788,R,ugm-3,4.57179,R,ugm-3,7.98781,R,ugm-3,82.01621,R,ugm-3,4.000,R,ugm-3 (BAM)
04-01-2018,17:00,2.19511,R,ugm-3,6.80916,R,ugm-3,10.17495,R,ugm-3,83.56613,R,ugm-3,4.000,R,ugm-3 (BAM)
04-01-2018,18:00,3.07971,R,ugm-3,8.82860,R,ugm-3,13.55076,R,ugm-3,83.35624,R,ugm-3,4.000,R,ugm-3 (BAM)
04-01-2018,19:00,2.68655,R,ugm-3,9.33634,R,ugm-3,13.45566,R,ugm-3,80.20798,R,ugm-3,4.000,R,ugm-3 (BAM)
04-01-2018,20:00,1.90025,R,ugm-3,7.21374,R,ugm-3,10.12741,R,ugm-3,78.65807,R,ugm-3,4.000,R,ugm-3 (BAM)
04-01-2018,21:00,1.50709,R,ugm-3,7.05582,R,ugm-3,9.36666,R,ugm-3,75.36451,R,ugm-3,3.000,R,ugm-3 (BAM)
04-01-2018,22:00,0.81907,R,ugm-3,7.06475,R,ugm-3,8.32064,R,ugm-3,73.71772,R,ugm-3,4.000,R,ugm-3 (BAM)
04-01-2018,23:00,0.58973,R,ugm-3,7.22621,R,ugm-3,8.13045,R,ugm-3,79.91737,R,ugm-3,4.000,R,ugm-3 (BAM)
04-01-2018,24:00,0.78631,R,ugm-3,10.96625,R,ugm-3,12.17191,R,ugm-3,61.22155,R,ugm-3,8.000,R,ugm-3 (BAM)
05-01-2018,01:00,0.68769,R,ugm-3,15.58206,R,ugm-3,16.63650,R,ugm-3,51.72851,R,ugm-3,7.000,R,ugm-3 (BAM)
05-01-2018,02:00,0.68769,R,ugm-3,13.63321,R,ugm-3,14.68765,R,ugm-3,51.68003,R,ugm-3,5.000,R,ugm-3 (BAM)
05-01-2018,03:00,0.81868,R,ugm-3,10.43780,R,ugm-3,11.69308,R,ugm-3,65.39996,R,ugm-3,4.000,R,ugm-3 (BAM)
05-01-2018,04:00,0.75318,R,ugm-3,5.83247,R,ugm-3,6.98733,R,ugm-3,73.15681,R,ugm-3,2.000,R,ugm-3 (BAM)
05-01-2018,05:00,0.75318,R,ugm-3,16.14710,R,ugm-3,17.30196,R,ugm-3,52.26179,R,ugm-3,4.000,R,ugm-3 (BAM)
05-01-2018,06:00,1.24439,R,ugm-3,19.62435,R,ugm-3,21.53238,R,ugm-3,44.31102,R,ugm-3,7.000,R,ugm-3 (BAM)
05-01-2018,07:00,3.43844,R,ugm-3,29.28419,R,ugm-3,34.55639,R,ugm-3,40.72347,R,ugm-3,5.000,R,ugm-3 (BAM)
05-01-2018,08:00,7.36808,R,ugm-3,36.33035,R,ugm-3,47.62792,R,ugm-3,37.13593,R,ugm-3,5.000,R,ugm-3 (BAM)
05-01-2018,09:00,8.18676,R,ugm-3,50.00038,R,ugm-3,62.55324,R,ugm-3,28.50643,R,ugm-3,9.000,R,ugm-3 (BAM)
05-01-2018,10:00,9.36565,R,ugm-3,38.44854,R,ugm-3,52.80900,R,ugm-3,46.73503,R,ugm-3,7.000,R,ugm-3 (BAM)
05-01-2018,11:00,1.73559,R,ugm-3,11.64618,R,ugm-3,14.30739,R,ugm-3,79.50773,R,ugm-3,6.000,R,ugm-3 (BAM)
05-01-2018,12:00,1.40812,R,ugm-3,8.86853,R,ugm-3,11.02762,R,ugm-3,81.49543,R,ugm-3,4.000,R,ugm-3 (BAM)
05-01-2018,13:00,2.58702,R,ugm-3,8.43937,R,ugm-3,12.40608,R,ugm-3,78.39269,R,ugm-3,5.000,R,ugm-3 (BAM)
05-01-2018,14:00,2.81625,R,ugm-3,9.89414,R,ugm-3,14.21232,R,ugm-3,73.78706,R,ugm-3,6.000,R,ugm-3 (BAM)
05-01-2018,15:00,2.84899,R,ugm-3,10.74706,R,ugm-3,15.11545,R,ugm-3,80.38038,R,ugm-3,5.000,R,ugm-3 (BAM)
05-01-2018,16:00,4.22437,R,ugm-3,16.05330,R,ugm-3,22.53057,R,ugm-3,70.97520,R,ugm-3,8.000,R,ugm-3 (BAM)
05-01-2018,17:00,4.58459,R,ugm-3,23.05870,R,ugm-3,30.08830,R,ugm-3,57.69159,R,ugm-3,7.000,R,ugm-3 (BAM)
05-01-2018,18:00,7.26984,R,ugm-3,29.58872,R,ugm-3,40.73566,R,ugm-3,45.95935,R,ugm-3,17.000,R,ugm-3 (BAM)
05-01-2018,19:00,11.95267,R,ugm-3,43.03775,R,ugm-3,61.36492,R,ugm-3,29.03971,R,ugm-3,15.000,R,ugm-3 (BAM)
05-01-2018,20:00,13.81925,R,ugm-3,48.16121,R,ugm-3,69.35043,R,ugm-3,20.89502,R,ugm-3,12.000,R,ugm-3 (BAM)
05-01-2018,21:00,36.84042,R,ugm-3,57.06814,R,ugm-3,113.55599,R,ugm-3,6.88421,R,ugm-3,28.000,R,ugm-3 (BAM)
05-01-2018,22:00,57.04534,R,ugm-3,60.40641,R,ugm-3,147.87471,R,ugm-3,5.72068,R,ugm-3,38.000,R,ugm-3 (BAM)
05-01-2018,23:00,69.55471,R,ugm-3,53.96445,R,ugm-3,160.61352,R,ugm-3,5.09043,R,ugm-3,34.000,R,ugm-3 (BAM)
05-01-2018,24:00,58.38797,R,ugm-3,41.90138,R,ugm-3,131.42834,R,ugm-3,4.75107,R,ugm-3,28.000,R,ugm-3 (BAM)
06-01-2018,01:00,55.33757,R,ugm-3,37.36963,R,ugm-3,122.21939,R,ugm-3,4.59378,R,ugm-3,25.000,R,ugm-3 (BAM)
06-01-2018,02:00,47.23114,R,ugm-3,32.21721,R,ugm-3,104.63728,R,ugm-3,4.36733,R,ugm-3,26.000,R,ugm-3 (BAM)
06-01-2018,03:00,27.88699,R,ugm-3,35.36211,R,ugm-3,78.12157,R,ugm-3,5.48343,R,ugm-3,22.000,R,ugm-3 (BAM)
06-01-2018,04:00,4.84422,R,ugm-3,18.54946,R,ugm-3,25.97716,R,ugm-3,7.66709,R,ugm-3,14.000,R,ugm-3 (BAM)
06-01-2018,05:00,7.79003,R,ugm-3,19.41813,R,ugm-3,31.36267,R,ugm-3,4.70701,R,ugm-3,17.000,R,ugm-3 (BAM)
06-01-2018,06:00,4.74603,R,ugm-3,23.23019,R,ugm-3,30.50733,R,ugm-3,6.55099,R,ugm-3,18.000,R,ugm-3 (BAM)
06-01-2018,07:00,11.81597,R,ugm-3,25.55258,R,ugm-3,43.67015,R,ugm-3,6.93920,R,ugm-3,21.000,R,ugm-3 (BAM)
06-01-2018,08:00,18.19856,R,ugm-3,28.97642,R,ugm-3,56.88049,R,ugm-3,6.21131,R,ugm-3,21.000,R,ugm-3 (BAM)
06-01-2018,09:00,23.43555,R,ugm-3,31.78086,R,ugm-3,67.71486,R,ugm-3,8.24940,R,ugm-3,16.000,R,ugm-3 (BAM)
06-01-2018,10:00,17.67486,R,ugm-3,23.50688,R,ugm-3,50.60795,R,ugm-3,19.11920,R,ugm-3,17.000,R,ugm-3 (BAM)
06-01-2018,11:00,8.08461,R,ugm-3,16.68552,R,ugm-3,29.08175,R,ugm-3,33.57991,R,ugm-3,18.000,R,ugm-3 (BAM)
06-01-2018,12:00,3.76409,R,ugm-3,9.90981,R,ugm-3,15.68134,R,ugm-3,48.96261,R,ugm-3,1.000,R,ugm-3 (BAM)
06-01-2018,13:00,2.35665,R,ugm-3,6.69819,R,ugm-3,10.31167,R,ugm-3,47.65242,R,ugm-3,1.000,R,ugm-3 (BAM)
06-01-2018,14:00,1.60383,R,ugm-3,5.14390,R,ugm-3,7.60307,R,ugm-3,46.82747,R,ugm-3,2.000,R,ugm-3 (BAM)
06-01-2018,15:00,1.34198,R,ugm-3,5.73548,R,ugm-3,7.79315,R,ugm-3,52.16532,R,ugm-3,7.000,R,ugm-3 (BAM)
06-01-2018,16:00,1.57110,R,ugm-3,6.80974,R,ugm-3,9.21872,R,ugm-3,54.34899,R,ugm-3,6.000,R,ugm-3 (BAM)
06-01-2018,17:00,3.69863,R,ugm-3,8.96477,R,ugm-3,14.63592,R,ugm-3,58.23106,R,ugm-3,6.000,R,ugm-3 (BAM)
06-01-2018,18:00,2.02934,R,ugm-3,5.91704,R,ugm-3,9.02865,R,ugm-3,68.37296,R,ugm-3,6.000,R,ugm-3 (BAM)
06-01-2018,19:00,2.97854,R,ugm-3,10.63911,R,ugm-3,15.20614,R,ugm-3,59.34715,R,ugm-3,6.000,R,ugm-3 (BAM)
06-01-2018,20:00,4.94241,R,ugm-3,14.70824,R,ugm-3,22.28651,R,ugm-3,56.87233,R,ugm-3,9.000,R,ugm-3 (BAM)
06-01-2018,21:00,3.73136,R,ugm-3,9.86496,R,ugm-3,15.58630,R,ugm-3,65.12173,R,ugm-3,11.000,R,ugm-3 (BAM)
06-01-2018,22:00,1.24379,R,ugm-3,7.07402,R,ugm-3,8.98113,R,ugm-3,66.48046,R,ugm-3,13.000,R,ugm-3 (BAM)
06-01-2018,23:00,1.24379,R,ugm-3,5.60092,R,ugm-3,7.50803,R,ugm-3,65.89814,R,ugm-3,10.000,R,ugm-3 (BAM)
06-01-2018,24:00,0.72009,R,ugm-3,5.35849,R,ugm-3,6.46261,R,ugm-3,65.65551,R,ugm-3,8.000,R,ugm-3 (BAM)
07-01-2018,01:00,0.58888,R,ugm-3,3.75261,R,ugm-3,4.65554,R,ugm-3,67.12572,R,ugm-3,10.000,R,ugm-3 (BAM)
07-01-2018,02:00,0.49073,R,ugm-3,2.71546,R,ugm-3,3.46791,R,ugm-3,69.99144,R,ugm-3,9.000,R,ugm-3 (BAM)
07-01-2018,03:00,0.35987,R,ugm-3,2.25104,R,ugm-3,2.80283,R,ugm-3,69.60286,R,ugm-3,7.000,R,ugm-3 (BAM)
07-01-2018,04:00,0.49073,R,ugm-3,2.00288,R,ugm-3,2.75532,R,ugm-3,68.97144,R,ugm-3,7.000,R,ugm-3 (BAM)
07-01-2018,05:00,0.49073,R,ugm-3,2.76297,R,ugm-3,3.51541,R,ugm-3,64.40572,R,ugm-3,7.000,R,ugm-3 (BAM)
07-01-2018,06:00,0.52345,R,ugm-3,2.28525,R,ugm-3,3.08786,R,ugm-3,63.33715,R,ugm-3,6.000,R,ugm-3 (BAM)
07-01-2018,07:00,0.85060,R,ugm-3,3.20879,R,ugm-3,4.51303,R,ugm-3,62.65715,R,ugm-3,5.000,R,ugm-3 (BAM)
07-01-2018,08:00,0.81789,R,ugm-3,3.82902,R,ugm-3,5.08309,R,ugm-3,60.71429,R,ugm-3,5.000,R,ugm-3 (BAM)
07-01-2018,09:00,2.74809,R,ugm-3,6.19003,R,ugm-3,10.40372,R,ugm-3,59.79144,R,ugm-3,5.000,R,ugm-3 (BAM)
07-01-2018,10:00,1.21047,R,ugm-3,4.65223,R,ugm-3,6.50826,R,ugm-3,64.45429,R,ugm-3,7.000,R,ugm-3 (BAM)
07-01-2018,11:00,1.01418,R,ugm-3,3.57555,R,ugm-3,5.13060,R,ugm-3,69.26286,R,ugm-3,6.000,R,ugm-3 (BAM)
07-01-2018,12:00,0.94875,R,ugm-3,3.39084,R,ugm-3,4.84557,R,ugm-3,72.22572,R,ugm-3,4.000,R,ugm-3 (BAM)
07-01-2018,13:00,1.11232,R,ugm-3,2.99751,R,ugm-3,4.70305,R,ugm-3,72.61429,R,ugm-3,5.000,R,ugm-3 (BAM)
07-01-2018,14:00,1.43948,R,ugm-3,3.44599,R,ugm-3,5.65316,R,ugm-3,71.49715,R,ugm-3,6.000,R,ugm-3 (BAM)
07-01-2018,15:00,0.85060,R,ugm-3,3.58884,R,ugm-3,4.89307,R,ugm-3,75.77144,R,ugm-3,6.000,R,ugm-3 (BAM)
07-01-2018,16:00,0.68702,R,ugm-3,5.31232,R,ugm-3,6.36574,R,ugm-3,74.89715,R,ugm-3,9.000,R,ugm-3 (BAM)
07-01-2018,17:00,2.35551,R,ugm-3,10.68744,R,ugm-3,14.29917,R,ugm-3,70.07239,R,ugm-3,9.000,R,ugm-3 (BAM)
07-01-2018,18:00,1.50491,R,ugm-3,9.90143,R,ugm-3,12.20893,R,ugm-3,68.64763,R,ugm-3,7.000,R,ugm-3 (BAM)
07-01-2018,19:00,0.98146,R,ugm-3,6.85609,R,ugm-3,8.36098,R,ugm-3,71.25429,R,ugm-3,9.000,R,ugm-3 (BAM)
07-01-2018,20:00,1.79935,R,ugm-3,7.64476,R,ugm-3,10.40372,R,ugm-3,70.38001,R,ugm-3,10.000,R,ugm-3 (BAM)
07-01-2018,21:00,1.37405,R,ugm-3,6.53917,R,ugm-3,8.64601,R,ugm-3,70.72001,R,ugm-3,9.000,R,ugm-3 (BAM)
07-01-2018,22:00,0.49073,R,ugm-3,5.42328,R,ugm-3,6.17572,R,ugm-3,71.40001,R,ugm-3,7.000,R,ugm-3 (BAM)
07-01-2018,23:00,0.55616,R,ugm-3,4.99041,R,ugm-3,5.84318,R,ugm-3,70.62286,R,ugm-3,6.000,R,ugm-3 (BAM)
07-01-2018,24:00,0.52345,R,ugm-3,3.75793,R,ugm-3,4.56053,R,ugm-3,72.22572,R,ugm-3,6.000,R,ugm-3 (BAM)
08-01-2018,01:00,0.32700,R,ugm-3,3.44044,R,ugm-3,3.94183,R,ugm-3,72.82825,R,ugm-3,6.000,R,ugm-3 (BAM)
08-01-2018,02:00,0.42510,R,ugm-3,2.76762,R,ugm-3,3.41942,R,ugm-3,73.80059,R,ugm-3,7.000,R,ugm-3 (BAM)
08-01-2018,03:00,0.32700,R,ugm-3,2.58559,R,ugm-3,3.08697,R,ugm-3,74.09229,R,ugm-3,8.000,R,ugm-3 (BAM)
08-01-2018,04:00,0.35970,R,ugm-3,3.77024,R,ugm-3,4.32176,R,ugm-3,72.92548,R,ugm-3,6.000,R,ugm-3 (BAM)
08-01-2018,05:00,0.42510,R,ugm-3,4.38234,R,ugm-3,5.03414,R,ugm-3,71.61282,R,ugm-3,6.000,R,ugm-3 (BAM)
08-01-2018,06:00,0.42510,R,ugm-3,4.90475,R,ugm-3,5.55655,R,ugm-3,69.57091,R,ugm-3,6.000,R,ugm-3 (BAM)
08-01-2018,07:00,1.04639,R,ugm-3,10.50600,R,ugm-3,12.11043,R,ugm-3,63.25070,R,ugm-3,6.000,R,ugm-3 (BAM)
08-01-2018,08:00,2.77946,R,ugm-3,15.92227,R,ugm-3,20.18406,R,ugm-3,57.95145,R,ugm-3,9.000,R,ugm-3 (BAM)
08-01-2018,09:00,1.24258,R,ugm-3,16.09416,R,ugm-3,17.99943,R,ugm-3,52.21465,R,ugm-3,7.000,R,ugm-3 (BAM)
08-01-2018,10:00,1.07909,R,ugm-3,15.30003,R,ugm-3,16.95461,R,ugm-3,47.88773,R,ugm-3,7.000,R,ugm-3 (BAM)
08-01-2018,11:00,1.50418,R,ugm-3,15.74054,R,ugm-3,18.04692,R,ugm-3,45.06795,R,ugm-3,9.000,R,ugm-3 (BAM)
08-01-2018,12:00,2.64867,R,ugm-3,15.79038,R,ugm-3,19.85161,R,ugm-3,40.35210,R,ugm-3,10.000,R,ugm-3 (BAM)
08-01-2018,13:00,1.60228,R,ugm-3,13.64296,R,ugm-3,16.09975,R,ugm-3,40.93550,R,ugm-3,9.000,R,ugm-3 (BAM)
08-01-2018,14:00,1.76578,R,ugm-3,14.57956,R,ugm-3,17.28705,R,ugm-3,36.80306,R,ugm-3,9.000,R,ugm-3 (BAM)
08-01-2018,15:00,1.63498,R,ugm-3,16.29986,R,ugm-3,18.80679,R,ugm-3,32.13583,R,ugm-3,13.000,R,ugm-3 (BAM)
08-01-2018,16:00,3.72775,R,ugm-3,20.26226,R,ugm-3,25.97807,R,ugm-3,26.54488,R,ugm-3,17.000,R,ugm-3 (BAM)
08-01-2018,17:00,3.30266,R,ugm-3,22.14885,R,ugm-3,27.21286,R,ugm-3,22.70413,R,ugm-3,27.000,R,ugm-3 (BAM)
08-01-2018,18:00,6.18022,R,ugm-3,23.15073,R,ugm-3,32.62693,R,ugm-3,20.17605,R,ugm-3,22.000,R,ugm-3 (BAM)
08-01-2018,19:00,3.62965,R,ugm-3,23.21470,R,ugm-3,28.78009,R,ugm-3,19.15509,R,ugm-3,25.000,R,ugm-3 (BAM)
08-01-2018,20:00,3.00836,R,ugm-3,22.55261,R,ugm-3,27.16536,R,ugm-3,19.15509,R,ugm-3,22.000,R,ugm-3 (BAM)
08-01-2018,21:00,1.50418,R,ugm-3,21.34459,R,ugm-3,23.65096,R,ugm-3,20.22467,R,ugm-3,24.000,R,ugm-3 (BAM)
08-01-2018,22:00,1.14449,R,ugm-3,21.84862,R,ugm-3,23.60347,R,ugm-3,18.71754,R,ugm-3,21.000,R,ugm-3 (BAM)
08-01-2018,23:00,0.88289,R,ugm-3,21.44237,R,ugm-3,22.79611,R,ugm-3,18.42584,R,ugm-3,20.000,R,ugm-3 (BAM)
08-01-2018,24:00,0.55589,R,ugm-3,19.56916,R,ugm-3,20.42152,R,ugm-3,20.46775,R,ugm-3,24.000,R,ugm-3 (BAM)
09-01-2018,01:00,0.65368,R,ugm-3,18.68536,R,ugm-3,19.68764,R,ugm-3,20.82757,R,ugm-3,23.000,R,ugm-3 (BAM)
09-01-2018,02:00,0.62099,R,ugm-3,18.08660,R,ugm-3,19.03878,R,ugm-3,20.87623,R,ugm-3,24.000,R,ugm-3 (BAM)
09-01-2018,03:00,0.68636,R,ugm-3,18.69855,R,ugm-3,19.75095,R,ugm-3,19.65967,R,ugm-3,27.000,R,ugm-3 (BAM)
09-01-2018,04:00,0.74083,R,ugm-3,18.67833,R,ugm-3,19.81425,R,ugm-3,19.80565,R,ugm-3,27.000,R,ugm-3 (BAM)
09-01-2018,05:00,0.69725,R,ugm-3,17.35245,R,ugm-3,18.42156,R,ugm-3,20.73024,R,ugm-3,28.000,R,ugm-3 (BAM)
09-01-2018,06:00,0.75173,R,ugm-3,18.40841,R,ugm-3,19.56104,R,ugm-3,20.34094,R,ugm-3,27.000,R,ugm-3 (BAM)
09-01-2018,07:00,1.79761,R,ugm-3,22.31222,R,ugm-3,25.06851,R,ugm-3,16.05864,R,ugm-3,27.000,R,ugm-3 (BAM)
09-01-2018,08:00,,,,,,,,,,9.19722,R,ugm-3,,,
09-01-2018,09:00,11.47199,R,ugm-3,32.59436,R,ugm-3,50.18450,R,ugm-3,5.93683,R,ugm-3,,,
09-01-2018,10:00,16.73408,R,ugm-3,31.41029,R,ugm-3,57.06885,R,ugm-3,6.71543,R,ugm-3,32.000,R,ugm-3 (BAM)
09-01-2018,11:00,18.10679,R,ugm-3,31.06218,R,ugm-3,58.82554,R,ugm-3,6.76409,R,ugm-3,27.000,R,ugm-3 (BAM)
09-01-2018,12:00,24.28402,R,ugm-3,33.65004,R,ugm-3,70.88502,R,ugm-3,6.27747,R,ugm-3,27.000,R,ugm-3 (BAM)
09-01-2018,13:00,28.10802,R,ugm-3,33.10422,R,ugm-3,76.20258,R,ugm-3,7.34804,R,ugm-3,30.000,R,ugm-3 (BAM)
09-01-2018,14:00,23.36887,R,ugm-3,32.34698,R,ugm-3,68.17876,R,ugm-3,8.61327,R,ugm-3,28.000,R,ugm-3 (BAM)
09-01-2018,15:00,23.36887,R,ugm-3,35.33811,R,ugm-3,71.16989,R,ugm-3,5.88817,R,ugm-3,25.000,R,ugm-3 (BAM)
09-01-2018,16:00,29.90562,R,ugm-3,36.28271,R,ugm-3,82.13736,R,ugm-3,4.57428,R,ugm-3,27.000,R,ugm-3 (BAM)
09-01-2018,17:00,28.43485,R,ugm-3,34.92951,R,ugm-3,78.52901,R,ugm-3,4.28230,R,ugm-3,32.000,R,ugm-3 (BAM)
09-01-2018,18:00,40.23369,R,ugm-3,36.01943,R,ugm-3,97.71022,R,ugm-3,4.23364,R,ugm-3,24.000,R,ugm-3 (BAM)
09-01-2018,19:00,44.67867,R,ugm-3,35.51849,R,ugm-3,104.02483,R,ugm-3,4.28230,R,ugm-3,31.000,R,ugm-3 (BAM)
09-01-2018,20:00,41.21420,R,ugm-3,36.03531,R,ugm-3,99.22953,R,ugm-3,4.23364,R,ugm-3,27.000,R,ugm-3 (BAM)
09-01-2018,21:00,37.45557,R,ugm-3,38.71237,R,ugm-3,96.14344,R,ugm-3,4.08765,R,ugm-3,31.000,R,ugm-3 (BAM)
09-01-2018,22:00,30.55930,R,ugm-3,42.54460,R,ugm-3,89.40153,R,ugm-3,4.03899,R,ugm-3,28.000,R,ugm-3 (BAM)
09-01-2018,23:00,39.48196,R,ugm-3,42.77450,R,ugm-3,103.31266,R,ugm-3,3.79568,R,ugm-3,29.000,R,ugm-3 (BAM)
09-01-2018,24:00,30.06904,R,ugm-3,43.29631,R,ugm-3,89.40153,R,ugm-3,3.79568,R,ugm-3,26.000,R,ugm-3 (BAM)
10-01-2018,01:00,13.87497,R,ugm-3,42.10608,R,ugm-3,63.38073,R,ugm-3,4.14019,R,ugm-3,25.000,R,ugm-3 (BAM)
10-01-2018,02:00,1.99131,R,ugm-3,30.79077,R,ugm-3,33.84408,R,ugm-3,11.00803,R,ugm-3,23.000,R,ugm-3 (BAM)
10-01-2018,03:00,0.70660,R,ugm-3,23.10443,R,ugm-3,24.18787,R,ugm-3,14.56372,R,ugm-3,22.000,R,ugm-3 (BAM)
10-01-2018,04:00,0.77083,R,ugm-3,17.04181,R,ugm-3,18.22373,R,ugm-3,16.70688,R,ugm-3,25.000,R,ugm-3 (BAM)
10-01-2018,05:00,0.83507,R,ugm-3,14.86060,R,ugm-3,16.14102,R,ugm-3,17.77845,R,ugm-3,17.000,R,ugm-3 (BAM)
10-01-2018,06:00,2.76215,R,ugm-3,19.99997,R,ugm-3,24.23520,R,ugm-3,13.29731,R,ugm-3,20.000,R,ugm-3 (BAM)
10-01-2018,07:00,18.53207,R,ugm-3,25.30907,R,ugm-3,53.72452,R,ugm-3,7.93942,R,ugm-3,12.000,R,ugm-3 (BAM)
10-01-2018,08:00,24.50602,R,ugm-3,26.42071,R,ugm-3,63.99608,R,ugm-3,9.74162,R,ugm-3,10.000,R,ugm-3 (BAM)
10-01-2018,09:00,12.68660,R,ugm-3,23.57443,R,ugm-3,43.02695,R,ugm-3,25.66917,R,ugm-3,8.000,R,ugm-3 (BAM)
10-01-2018,10:00,8.44703,R,ugm-3,20.13480,R,ugm-3,33.08673,R,ugm-3,36.04399,R,ugm-3,12.000,R,ugm-3 (BAM)
10-01-2018,11:00,6.90537,R,ugm-3,17.48121,R,ugm-3,28.06928,R,ugm-3,47.68523,R,ugm-3,8.000,R,ugm-3 (BAM)
10-01-2018,12:00,5.46006,R,ugm-3,16.71525,R,ugm-3,25.08722,R,ugm-3,50.51030,R,ugm-3,9.000,R,ugm-3 (BAM)
10-01-2018,13:00,7.09807,R,ugm-3,20.30979,R,ugm-3,31.19335,R,ugm-3,47.29556,R,ugm-3,7.000,R,ugm-3 (BAM)